Regional Weather Roundup
Issued by NWS

Home | Current Version | Previous Version | Graphics & Text | Print | Product List | Glossary On
Versions: 1 2 3 4 5 6 7 8 9 10 11 12 13 14 15 16 17 18 19 20 21 22 23 24 25 26 27 28 29 30 31 32 33 34 35 36 37 38 39 40 41 42 43 44 45 46 47 48 49 50
000
ASUS45 KTFX 261904
RWRMT
MONTANA HOURLY WEATHER ROUNDUP
NATIONAL WEATHER SERVICE GREAT FALLS MT
1204 PM MST WED NOV 26 2014

NOTE: "FAIR" INDICATES FEW OR NO CLOUDS BELOW 12000 FEET WITH NO
SIGNIFICANT WEATHER AND/OR OBSTRUCTIONS TO VISIBILITY.

* THESE STATIONS ARE NOT UNDER NWS QUALITY CONTROL. THEY DO NOT
   REPORT WEATHER SUCH AS PRECIPITATION OR FOG.

MTZ001>007-043-262000-
WEST OF THE DIVIDE
CITY           SKY/WX    TMP DP  RH WIND       PRES   REMARKS
KALISPELL      SNOW      32  30  92 CALM      30.15S VSB 1/2
MISSOULA       LGT RAIN  34  34 100 CALM      30.19S
BUTTE          PTSUNNY   39  34  82 CALM      30.13S
MULLAN PASS    LGT RAIN  34  34 100 VRB6      30.13R VSB M1/4 WCI  29
* ESSEX        N/A       29  28  96 N3         N/A
* LINCOLN      N/A       32  30  92 S5         N/A   WCI  27
* LOOKOUT PASS N/A       38  38 100 VRB3G9     N/A
* POLSON       N/A       33  32  96 N/A        N/A
* RONAN APT    CLOUDY    32  30  92 N/A        N/A
* SEELEY LAKE  N/A       32  29  89 N/A        N/A
* THOMP F APT  CLOUDY    38  32  79 S2         N/A
* YAAK HILL    N/A       33  31  92 N/A        N/A
$$

MTZ008-052>055-262000-
SOUTHWEST MONTANA
CITY           SKY/WX    TMP DP  RH WIND       PRES   REMARKS
BOZEMAN        FOG       28  27  96 SE3       30.14F VSB M1/4
DILLON         PTSUNNY   48  30  50 SW18G28   30.17R
* W YELLOWSTON CLOUDY    36  32  85 SW7G17     N/A   WCI  30
* ENNIS APT    PTSUNNY   45  30  56 S9         N/A
* THREE FORKS  PTSUNNY   30   9  41 N/A        N/A
* BOULDER HILL N/A       30  26  85 S12        N/A   WCI  20
* MONIDA PASS  N/A       30  30 100 SE12       N/A   WCI  20
* RAYNOLDS PAS N/A       33  17  52 S9         N/A   WCI  25
* WHITEHALL    N/A       36  29  76 N3         N/A
* WISE RIVER   N/A       44  31  60 NW14G24    N/A
$$

MTZ009>010-012-014-046-048-049-054-262000-
EAST SLOPES AND CENTRAL MONTANA
CITY           SKY/WX    TMP DP  RH WIND       PRES   REMARKS
CUT BANK       LGT SNOW  28  27  96 SE7       30.12F VSB 3    WCI  21
GREAT FALLS    LGT SNOW  30  28  92 E9        30.12F VSB 1/2  WCI  22
HELENA         LGT SNOW  34  30  85 CALM      30.12F VSB 3
MALMSTROM AFB  LGT SNOW  28  28 100 SE9       30.15F VSB 2 1/4 WCI  19
* DEARBORN     N/A       32  30  92 N/A        N/A
* EAST GLACIER N/A       26  24  92 SE6        N/A   WCI  19
* MONARCH      N/A       26  21  81 E7         N/A   WCI  18
* PENDROY      N/A       28  28 100 SE7        N/A   WCI  21
* ROGERS PASS  N/A       33  30  89 E9G19      N/A   WCI  25
* SAINT MARY   N/A       30  24  78 NE1        N/A
* SWEET GRASS  N/A       28  28 100 S14        N/A   WCI  17
$$

MTZ011-013-016-021-035-040-045-047-050-051-262000-
NORTH CENTRAL MONTANA
CITY           SKY/WX    TMP DP  RH WIND       PRES   REMARKS
HAVRE          CLOUDY    30  27  89 E9        30.20F WCI  22
LEWISTOWN      LGT SNOW  28  25  89 E12       30.14F VSB 1 1/2 WCI  18
* N BAR RANCH  FOG       27  25  92 SE9       30.15S VSB 3    WCI  18
* CHESTER      N/A       28  25  89 SE5G10     N/A   WCI  22
* DENTON       N/A       30  28  92 E6         N/A   WCI  24
* GEYSER       N/A       28  24  85 NE4        N/A
* JUDITH GAP   N/A       26  25  96 SE9        N/A   WCI  17
* LOMA         N/A       31  29  92 E10        N/A   WCI  22
$$

MTZ017>020-022>027-061-062-262000-
NORTHEAST MONTANA
CITY           SKY/WX    TMP DP  RH WIND       PRES   REMARKS
GLASGOW        CLOUDY    25  18  75 SE10      30.28F WCI  15
GLENDIVE       PTSUNNY   21  16  81 NE6       30.30F WCI  13
JORDAN         CLOUDY    27  23  85 E8        30.25F WCI  19
SIDNEY         PTSUNNY   18   9  68 N7        30.36S WCI   9
WOLF POINT     CLOUDY    19  12  74 E8        30.34F WCI   9
* BEAVER HILL  N/A       20  15  81 NW6        N/A   WCI  12
* CIRCLE       N/A       24  20  85 NE2        N/A
* LINDSAY DVD  N/A       21  16  81 E4         N/A
* NAVAJO       N/A       10   4  76 E6         N/A
* SACO         N/A       26  21  81 E8         N/A   WCI  18
$$

MTZ028>042-056>058-262000-
SOUTHCENTRAL AND SOUTHEAST MONTANA
CITY           SKY/WX    TMP DP  RH WIND       PRES   REMARKS
BILLINGS       SNOW      28  27  96 SE7       30.18F VSB 1/2  WCI  21
LIVINGSTON     CLOUDY    28  25  89 CALM      30.11F
MILES CITY     LGT SNOW  27  23  85 E10       30.26F VSB 2    WCI  18
* LAUREL APT   CLOUDY    28  23  81 N/A        N/A
* ALZADA       N/A       29  25  85 W7         N/A   WCI  22
* HYSHAM       N/A       30  27  89 E3         N/A
* LAME DEER    N/A       26  24  92 NW4        N/A
* REED POINT   N/A       31  31 100 E2         N/A
* ROSCOE HILL  N/A       29  22  75 N/A        N/A
$$

REGIONAL REPORTS...DAKOTAS
CITY           SKY/WX    TMP DP  RH WIND       PRES   REMARKS
WILLISTON      CLOUDY    12   3  67 N10       30.37F WCI  -1
DICKINSON      CLOUDY    19  12  74 N5        30.26S WCI  12
BEACH          SUNNY     19  16  88 N7        30.28S WCI  10
CROSBY         CLOUDY     1   0  95 N3        30.40S
BISMARCK       CLOUDY    10   3  73 NE5       30.39R WCI   1
GRAND FORKS    SUNNY      3  -6  66 N13       30.45S WCI -14
FARGO          CLOUDY     7  -4  60 N14       30.40R WCI -10
BUFFALO SD     CLOUDY    28  21  75 N12       30.16S WCI  18
RAPID CITY     CLOUDY    28  23  81 S7        30.23F WCI  21
$$

REGIONAL REPORTS...WYOMING/IDAHO/WASHINGTON
CITY           SKY/WX    TMP DP  RH WIND       PRES   REMARKS
GILLETTE       LGT SNOW  28  25  89 CALM      30.18F VSB 3
SHERIDAN       LGT SNOW  28  25  89 E6        30.18S VSB 1 1/4 WCI  21
CODY           PTSUNNY   27  21  78 S6        30.13S WCI  20
YELLOWSTONE LA CLOUDY    32  28  85 VRB5      30.22R WCI  27
SALMON         CLOUDY    34  34 100 CALM      30.22F VSB 1
MULLAN PASS    LGT RAIN  34  34 100 VRB6      30.13S VSB M1/4 WCI  29
SAND POINT     FOG       32  32 100 CALM      30.17F VSB 1 3/4
SPOKANE        FOG       37  37 100 SE6       30.14F VSB M1/4 WCI  32

$$



USA.gov is the U.S. government's official web portal to all federal, state and local government web resources and services.